Miscellaneous Local Product
Issued by NWS North Platte, NE

Home | Current Version | Previous Version | Text Only | Print | Product List | Glossary On
Versions: 1 2 3 4 5 6 7 8 9 10 11 12 13 14 15 16 17 18 19 20 21 22 23 24 25 26 27 28 29 30 31 32 33 34 35 36 37 38 39 40 41 42 43 44 45 46 47 48 49 50
000
AXUS43 KLBF 291710
MISLBF


WESTERN AND NORTH CENTRAL NEBRASKA HOURLY WEATHER ROUNDUP
NATIONAL WEATHER SERVICE NORTH PLATTE NE
1100 AM CST THU JAN 29 2015

***STATIONS NOT REPORTING VARIABLES SUCH AS SKY/WEATHER OR
PRESSURE ARE PROVIDED BY THE NEBRASKA DEPARTMENT OF
ROADS...RAWS...AND APRS NETWORKS...AND ARE NOT UNDER
NATIONAL WEATHER SERVICE QUALITY CONTROL***

...OBSERVATIONS IN AND NEAR THE EASTERN PANHANDLE OF NEBRASKA...

CITY           SKY/WX    TMP DP  RH WIND       PRES   REMARKS
PINE RIDGE     SUNNY     33  25  72 W8        30.50R WCI  26
CHADRON        SUNNY     36  27  69 NW13      30.51S WCI  27
ALLIANCE       SUNNY     34  25  69 N10       30.48R WCI  26
SIDNEY         SUNNY     39  20  46 N20       30.49R WCI  29
WHITECLAY        N/A     30  23  74 W5          N/A  WCI  25
CRESCENT LAKE    N/A     33  25  72 N14         N/A  WCI  23
LISCO            N/A     39  19  44 W13         N/A  WCI  32
LEWELLEN         N/A     35  26  70 NW10        N/A  WCI  27
$$

...OBSERVATIONS IN NORTH CENTRAL NEBRASKA...

CITY           SKY/WX    TMP DP  RH WIND       PRES   REMARKS
VALENTINE      SUNNY     37  23  56 NW15G25   30.48R WCI  28
THEDFORD       MOSUNNY   37  24  60 N17G23    30.48R WCI  27
AINSWORTH      MOSUNNY   37  23  58 N20       30.46R WCI  26
O`NEILL        CLOUDY    38  28  66 NW23      30.45R WCI  27
ORD            CLOUDY    38  24  57 N18G29    30.45R WCI  28
BROKEN BOW     PTSUNNY   37  24  59 N23G30    30.46R WCI  26
BROWNLEE         N/A     37  24  60 NW18        N/A  WCI  27
SPRINGVIEW       N/A     38  25  59 NW15        N/A  WCI  29
BREWSTER         N/A     38  24  57 NW20        N/A  WCI  28
ROSE             N/A     39  27  62 SW15        N/A  WCI  30
NEWPORT          N/A     38  24  55 NW25        N/A  WCI  27
SARGENT          N/A     37  26  64 NW8G17      N/A  WCI  31
COMSTOCK         N/A     40  26  55 E16         N/A  WCI  32
CHAMBERS         N/A     39  24  55 N15         N/A  WCI  30
EWING            N/A     37  29  72 N13G23      N/A  WCI  29
$$

...OBSERVATIONS IN SOUTHWEST NEBRASKA AND FAR NORTHEAST COLORADO...

CITY           SKY/WX    TMP DP  RH WIND       PRES   REMARKS
WRAY           FAIR      39  26  60 N10       30.51R WCI  32
HOLYOKE        FAIR      37  28  70 NW13      30.52R WCI  29
IMPERIAL       SUNNY     36  24  62 N17       30.52R WCI  26
OGALLALA       SUNNY     35  26  71 N13       30.51R WCI  26
NORTH PLATTE   SUNNY     37  24  59 N16G22    30.49R WCI  28
MCCOOK         SUNNY     40  24  53 N18       30.51R WCI  31
LEXINGTON      MOSUNNY   39  25  56 N20       30.48R WCI  30
BRADY            N/A     37  25  62 CALM        N/A
GOTHENBURG       N/A     37  22  56 N13         N/A  WCI  29
CALLAWAY         N/A     37  26  65 NW14        N/A  WCI  28
$$

...NORTH PLATTE AREA...

CITY           SKY/WX    TMP DP  RH WIND       PRES   REMARKS
AIRPORT        SUNNY     37  24  59 N16G22    30.49R WCI  28
DOWNTOWN         N/A     36  25  65 N8G16       N/A  WCI  30
$$

...SOME WEATHER OBSERVATIONS FROM AROUND THE REGION...

CITY           SKY/WX    TMP DP  RH WIND       PRES   REMARKS
DENVER         CLOUDY    40  26  57 NE6       30.51R
LARAMIE        PTSUNNY   30  26  85 CALM      30.45R
CHEYENNE       MOSUNNY   40  24  53 CALM      30.47R
SCOTTSBLUFF    SUNNY     37  23  56 NW14      30.51R WCI  28
RAPID CITY     SUNNY     34  21  59 SE3       30.47R
PIERRE         CLOUDY    35  23  61 N20G26    30.48R WCI  24
WINNER         FAIR      38  23  55 NW25G32   30.46R WCI  27
SIOUX FALLS    CLOUDY    32  23  69 N20G33    30.39R WCI  20
OMAHA          CLOUDY    37  26  64 N21G30    30.38R WCI  26
GRAND ISLAND   CLOUDY    38  25  59 N26G35    30.45R WCI  26
KANSAS CITY    CLOUDY    40  27  59 N18G25    30.32R WCI  31
WICHITA        CLOUDY    46  27  47 N23G31    30.44R
HAYS           SUNNY     41  21  45 N22G29    30.49R
LIBERAL        PTSUNNY   43  28  56 N17       30.54R
GOODLAND       SUNNY     37  28  70 N17       30.51R WCI  27
$$



USA.gov is the U.S. government's official web portal to all federal, state and local government web resources and services.